Flag for Barbados Weather past 2 weeks in Bridgetown, Barbados

Now
77 °F

Passing clouds.


Feels Like: 79 °F
Forecast: 77 / 84 °F
Wind: 25 mph from Northeast

Location: Grantley Adams

Current Time: Mar 1, 2015 at 5:34:03 AM

Latest Report: Mar 1, 2015 at 5:00 AM


Visibility: N/A

Pressure: 29.95 "Hg

Humidity: 74%

Dew point: 68 °F

Location of BridgetownLocation

Historic Weather in Bridgetown — Graph

°F

Bridgetown temperature yesterday

Maximum temperature yesterday: 84 °F (at 12:00 PM)
Minimum temperature yesterday: 73 °F (at 6:00 AM)
Average temperature yesterday: 78 °F

Past Weeks' High & Low Weather Summary

 TemperatureHumidityPressure
High86 °F (Feb 14, 12:00 PM)100% (Feb 16, 3:00 AM)30.07 "Hg (Feb 16, 3:00 AM)
Low70 °F (Feb 25, 5:00 AM)55% (Feb 18, 11:00 AM)29.89 "Hg (Feb 19, 3:00 PM)
Average79 °F74%29.98 "Hg
* Reported Feb 14 4:00 AM — Mar 1 4:00 AM, Bridgetown, Weather by CustomWeather, © 2015

Note: Actual official high and low records may vary slightly from our data, if they occured in-between our weather recording intervals... More about our weather records

Advertising

Bridgetown weather history for previous 24 hours

 ConditionsComfort  
Time TempWeatherWind HumidityBarometerVisibility
4:00 AM
Sun, Mar 1
75 °FPassing clouds.25 mph78%29.95 "HgN/A
3:00 AM77 °FPassing clouds.24 mph74%29.95 "HgN/A
2:00 AM75 °FSprinkles. Passing clouds.24 mph83%29.98 "HgN/A
1:00 AM75 °FPassing clouds.25 mph89%29.98 "HgN/A
12:00 AM75 °FPartly cloudy.29 mph83%30.01 "HgN/A
11:00 PM
Sat, Feb 28
75 °FPassing clouds.22 mph83%30.01 "HgN/A
10:00 PM75 °FPartly cloudy.21 mph83%30.01 "HgN/A
9:00 PM75 °FPassing clouds.23 mph83%30.01 "HgN/A
8:00 PM73 °FSprinkles. Partly cloudy.29 mph89%30.01 "HgN/A
7:00 PM75 °FPassing clouds.28 mph83%29.98 "HgN/A
6:00 PM77 °FScattered clouds.22 mph79%29.98 "HgN/A
5:00 PM79 °FBroken clouds.22 mph74%29.98 "HgN/A
3:00 PM82 °FPassing clouds.25 mph62%29.98 "HgN/A
2:00 PM82 °FScattered clouds.26 mph62%29.98 "HgN/A
1:00 PM82 °FSprinkles. Scattered clouds.24 mph66%30.01 "HgN/A
12:00 PM84 °FScattered clouds.29 mph55%30.04 "HgN/A
11:00 AM82 °FPassing clouds.26 mph58%30.04 "HgN/A
10:00 AM82 °FScattered clouds.24 mph58%30.07 "HgN/A
9:00 AM81 °FScattered clouds.24 mph62%30.04 "HgN/A
8:00 AM79 °FScattered clouds.24 mph61%30.04 "HgN/A
7:00 AM75 °FScattered clouds.29 mph78%30.01 "HgN/A
6:00 AM73 °FPassing clouds.16 mph89%29.98 "HgN/A
5:00 AM77 °FPassing clouds.20 mph74%29.98 "HgN/A
Weather by CustomWeather, © 2015

See weather overviewHow to use our weather pages